Tracking 29892 objects as of 21-Nov-2024
HD Live streaming from Space Station
objects crossing your sky now

ARABSAT 1B

Track ARABSAT 1B now!
ARABSAT 1B is classified as:


NORAD ID: 15825
Int'l Code: 1985-048C
Perigee: 35,712.4 km
Apogee: 35,810.2 km
Inclination: 13.0 °
Period: 1,434.4 minutes
Semi major axis: 42132 km
RCS: 3.4988 m2 (large)
Launch date: June 17, 1985
Source: Arab Satellite Communications Organization (AB)
Launch site: AIR FORCE EASTERN TEST RANGE (AFETR)
Your satellite tracking list
Your tracking list is empty




NASA's NSSDC Master Catalog

Two Line Element Set (TLE):
1 15825U 85048C   24325.32990038  .00000009  00000-0  00000-0 0  9995
2 15825  12.9918 338.2047 0011602 354.8246  20.4330  1.00387540129677
Source of the keplerian elements: AFSPC